Wetbulb
60.17 60.19 60.06 59.26 58.95 58.81 58.49 58.23 58.28 57.96 58.45 58.38 58.31 57.91 57.40 56.55 55.68 54.72 52.75 52.15 49.60 49.36
60.56 60.06 59.88 60.07 59.94 59.25 59.60 59.44 59.10 57.95 58.29 58.24 58.15 57.77 57.59 56.87 56.07 55.44 53.76 52.94 52.09 49.86
60.16 60.36 60.31 60.12 59.62 59.88 59.79 59.92 58.97 58.56 57.78 57.74 58.34 58.30 57.75 57.71 57.69 56.55 55.75 54.12 53.28 52.26
59.51 59.78 59.84 59.71 59.69 59.86 59.96 59.63 59.30 58.56 58.44 57.94 57.62 58.54 58.44 58.34 58.40 57.46 56.32 55.65 53.84 52.94
56.11 58.28 59.05 59.36 59.88 60.37 60.09 59.65 58.97 58.65 58.06 57.97 57.93 58.23 58.15 57.92 57.97 57.54 56.49 55.85 54.67 53.11
47.39 48.69 49.66 50.23 50.30 53.23 56.79 59.79 59.99 58.88 57.99 57.58 57.58 57.63 57.86 58.08 57.78 57.63 57.37 56.76 55.86 54.75
42.22 44.28 45.61 46.66 46.93 46.47 48.23 48.86 49.10 49.10 51.87 53.19 56.68 56.10 55.49 56.76 57.28 57.32 57.21 57.04 56.77 55.85
39.04 39.82 41.33 42.75 43.70 43.52 43.59 44.26 45.18 45.13 45.58 46.72 45.72 42.47 41.98 43.38 44.85 48.53 53.18 55.79 56.00 55.79
36.11 36.63 37.44 38.36 39.26 39.44 39.82 40.56 40.68 40.83 41.72 41.87 42.41 39.82 39.79 39.38 41.97 42.99 43.45 43.71 44.50 45.02
33.93 33.94 34.53 35.48 36.12 35.98 36.61 37.40 37.41 37.57 38.01 38.34 39.03 38.89 38.95 37.61 39.40 39.75 40.02 39.26 38.57 37.94
31.96 32.40 32.84 33.38 33.52 34.28 34.87 34.66 34.75 35.18 35.63 35.90 36.49 37.54 37.95 37.40 36.73 36.58 36.40 36.66 36.42 35.87
31.11 31.50 31.81 31.68 32.32 32.91 32.76 32.59 32.68 32.82 32.88 33.08 33.63 35.98 36.93 36.53 34.95 34.24 34.56 34.56 35.29 35.14
30.70 30.93 31.16 31.29 31.65 32.12 32.10 31.05 30.86 30.81 31.35 31.51 31.58 33.77 34.43 34.72 34.01 33.46 33.79 34.89 34.24 34.14
29.30 30.21 31.33 31.46 31.55 31.30 30.58 30.17 29.01 28.86 29.31 29.72 30.53 31.05 33.97 35.42 33.96 33.34 33.55 33.39 33.85 34.05
MSLP
1014.20 1014.63 1014.82 1015.24 1015.75 1016.19 1016.43 1016.50 1016.83 1017.31 1017.53 1017.96 1018.30 1018.77 1019.23 1019.68 1019.94 1020.46 1020.97 1021.30 1021.77 1022.03
1013.46 1013.93 1014.24 1014.37 1015.04 1015.53 1015.75 1015.85 1016.23 1016.39 1016.62 1016.84 1017.20 1017.67 1018.16 1018.71 1018.93 1019.27 1019.61 1019.81 1020.40 1020.83
1012.86 1013.16 1013.58 1014.03 1014.38 1014.72 1014.88 1015.37 1015.42 1015.79 1016.10 1016.19 1016.70 1017.09 1017.49 1017.80 1017.93 1018.20 1018.22 1018.54 1018.93 1019.31
1012.61 1013.02 1013.39 1013.65 1013.84 1014.07 1014.51 1014.51 1014.72 1015.15 1015.56 1015.26 1015.80 1016.21 1016.34 1016.56 1016.73 1016.81 1016.96 1017.26 1017.64 1017.91
1012.92 1013.03 1013.16 1013.35 1013.50 1013.62 1013.79 1013.95 1014.11 1014.56 1014.77 1015.07 1015.27 1015.09 1015.54 1015.51 1015.62 1015.58 1015.60 1015.76 1016.17 1016.40
1014.10 1014.22 1014.37 1014.10 1014.05 1013.96 1013.71 1013.62 1013.83 1014.08 1014.25 1014.36 1014.38 1014.40 1014.48 1014.47 1014.40 1014.15 1014.41 1014.46 1014.63 1014.76
1015.71 1015.77 1015.63 1015.28 1014.78 1014.55 1014.87 1014.70 1014.59 1014.58 1014.46 1014.13 1013.84 1013.87 1014.12 1014.10 1013.70 1013.56 1013.50 1013.28 1013.26 1013.39
1017.31 1017.18 1016.97 1015.84 1016.11 1016.06 1015.77 1015.99 1016.30 1015.81 1015.35 1014.58 1015.26 1015.74 1015.80 1015.37 1015.02 1014.20 1013.61 1013.10 1012.77 1012.52
1018.23 1018.33 1018.33 1017.53 1017.42 1016.82 1016.87 1016.68 1016.11 1017.22 1015.37 1016.49 1016.29 1016.18 1016.27 1015.95 1015.51 1014.72 1014.23 1014.08 1013.97 1013.73
1019.48 1019.44 1019.14 1018.37 1018.68 1017.78 1017.84 1017.67 1017.58 1017.67 1017.48 1017.07 1016.93 1016.89 1016.46 1015.82 1015.95 1015.02 1015.10 1014.50 1014.29 1012.94
1020.79 1020.39 1020.58 1019.93 1019.51 1018.95 1018.63 1018.33 1018.03 1018.14 1017.87 1017.82 1017.68 1016.97 1016.68 1016.17 1015.88 1015.73 1015.14 1014.91 1014.28 1013.92
1021.90 1021.20 1021.56 1020.51 1020.39 1020.10 1019.69 1019.41 1019.20 1019.03 1018.79 1018.67 1017.93 1017.43 1017.04 1016.72 1016.31 1015.82 1015.26 1014.69 1014.48 1014.12
1022.60 1022.41 1022.18 1021.49 1020.84 1020.80 1020.60 1020.45 1020.19 1019.82 1019.24 1018.98 1018.52 1018.16 1017.92 1017.48 1016.51 1015.87 1015.05 1014.62 1014.14 1013.95
1022.89 1022.72 1022.50 1022.16 1021.75 1021.57 1021.37 1021.09 1020.57 1020.17 1020.03 1019.71 1019.23 1018.83 1018.22 1017.46 1016.81 1016.11 1015.42 1014.81 1014.12 1013.93
Wind_Speed
17 12 12 12 11 11 11 11 13 14 15 15 14 13 13 10 11 14 14 17 14 11
15 15 13 14 11 9 11 9 12 14 17 16 15 15 15 12 14 13 14 16 15 13
14 14 13 11 13 11 10 11 11 14 14 15 14 15 16 14 15 15 14 12 16 16
11 12 11 11 12 13 11 12 13 12 13 14 15 16 16 17 18 18 17 16 16 18
4 5 10 10 11 11 13 11 12 12 13 14 14 16 16 17 17 19 18 18 17 18
11 8 9 8 11 9 5 10 10 12 14 14 15 15 16 18 18 18 18 17 19 19
13 10 9 8 10 11 9 10 9 10 9 6 7 7 9 11 16 18 17 18 19 19
12 11 10 12 10 9 11 10 9 9 9 11 11 9 10 9 9 10 12 14 15 16
13 11 10 10 9 10 10 11 10 10 11 8 7 13 13 9 7 7 6 7 9 10
11 11 11 12 10 10 10 8 9 9 9 8 8 14 15 16 5 5 6 6 6 6
12 11 8 9 10 11 10 11 10 9 10 9 8 20 19 17 8 7 6 7 7 5
10 11 10 12 11 9 10 11 11 9 11 10 10 21 21 17 8 7 8 5 6 7
8 9 9 10 11 10 9 9 7 8 10 13 12 21 23 19 8 9 9 9 6 8
10 9 10 11 10 10 10 9 10 11 9 11 13 15 24 24 9 8 8 7 7 6
Wind_Direction
212 211 212 207 210 216 211 209 206 209 208 213 208 206 202 203 207 206 214 220 219 224
213 212 214 212 210 213 216 214 214 204 207 210 209 205 206 213 216 208 213 218 222 221
212 212 218 213 216 218 221 221 209 211 214 215 214 212 210 219 225 219 220 221 221 223
211 214 215 219 216 216 218 213 215 213 219 224 220 221 216 225 233 230 227 225 223 227
11 232 211 216 223 220 224 217 214 214 220 222 223 232 226 227 227 230 230 227 224 224
49 34 39 48 51 19 318 227 217 219 222 224 226 232 230 234 234 233 235 234 230 228
36 33 35 34 47 54 26 26 22 37 26 20 276 273 284 258 240 241 240 239 236 232
32 27 23 42 32 40 45 33 32 4 46 41 46 36 5 351 355 356 308 278 254 241
30 25 9 33 29 38 35 30 42 6 49 22 42 14 5 5 341 350 350 342 329 330
26 21 10 25 10 34 31 29 39 36 21 30 32 7 7 1 332 344 327 332 312 326
14 26 6 21 23 22 21 23 21 20 18 15 11 10 4 358 351 333 327 318 321 302
5 20 16 32 24 23 28 26 23 22 19 11 12 10 3 1 348 341 333 317 313 316
19 33 24 29 31 27 28 25 12 14 19 17 12 8 4 359 344 337 341 330 315 298
23 28 31 32 30 29 24 16 18 15 8 13 12 0 359 354 342 332 326 323 325 317